Time,TemperatureF,DewpointF,PressureIn,WindDirection,WindDirectionDegrees,WindSpeedMPH,WindSpeedGustMPH,Humidity,HourlyPrecipIn,Conditions,Clouds,dailyrainin,SoftwareType,DateUTC
2013-01-04 00:03:00,26.0,13.0,30.11,WNW,282,2.0,10.0,57,0.00,,,0.00,,2013-01-04 05:03:00,
2013-01-04 00:12:00,26.0,13.0,30.11,WNW,282,2.0,10.0,57,0.00,,,0.00,,2013-01-04 05:12:00,
2013-01-04 00:22:00,26.0,13.0,30.11,West,280,2.0,8.0,57,0.00,,,0.00,,2013-01-04 05:22:00,
2013-01-04 00:33:00,25.0,12.0,30.11,WNW,289,1.0,5.0,57,0.00,,,0.00,,2013-01-04 05:33:00,
2013-01-04 00:42:00,25.0,12.0,30.11,WNW,289,1.0,5.0,57,0.00,,,0.00,,2013-01-04 05:42:00,
2013-01-04 00:52:00,25.0,12.0,30.10,West,274,0.0,6.0,57,0.00,,,0.00,,2013-01-04 05:52:00,
2013-01-04 01:02:00,25.0,12.0,30.10,WSW,252,3.0,7.0,58,0.00,,,0.00,,2013-01-04 06:02:00,
2013-01-04 01:12:00,25.0,12.0,30.10,WSW,252,3.0,7.0,58,0.00,,,0.00,,2013-01-04 06:12:00,
2013-01-04 01:22:00,24.0,11.0,30.10,WSW,255,2.0,9.0,58,0.00,,,0.00,,2013-01-04 06:22:00,
2013-01-04 01:33:00,24.0,12.0,30.10,WNW,301,1.0,6.0,59,0.00,,,0.00,,2013-01-04 06:33:00,
2013-01-04 01:42:00,24.0,12.0,30.10,WNW,301,1.0,6.0,59,0.00,,,0.00,,2013-01-04 06:42:00,
2013-01-04 01:52:00,24.0,12.0,30.11,SW,227,1.0,6.0,59,0.00,,,0.00,,2013-01-04 06:52:00,
2013-01-04 02:02:00,24.0,12.0,30.10,WSW,243,3.0,9.0,60,0.00,,,0.00,,2013-01-04 07:02:00,
2013-01-04 02:12:00,24.0,12.0,30.10,WSW,243,3.0,9.0,60,0.00,,,0.00,,2013-01-04 07:12:00,
2013-01-04 02:22:00,24.0,12.0,30.11,SW,225,1.0,3.0,60,0.00,,,0.00,,2013-01-04 07:22:00,
2013-01-04 02:32:00,24.0,13.0,30.12,West,277,1.0,6.0,61,0.00,,,0.00,,2013-01-04 07:32:00,
2013-01-04 02:42:00,24.0,13.0,30.12,West,277,1.0,6.0,61,0.00,,,0.00,,2013-01-04 07:42:00,
2013-01-04 02:52:00,24.0,13.0,30.12,West,275,2.0,7.0,61,0.00,,,0.00,,2013-01-04 07:52:00,
2013-01-04 03:02:00,24.0,13.0,30.12,WSW,240,2.0,7.0,61,0.00,,,0.00,,2013-01-04 08:02:00,
2013-01-04 03:12:00,24.0,13.0,30.12,WSW,240,2.0,7.0,61,0.00,,,0.00,,2013-01-04 08:12:00,
2013-01-04 03:22:00,24.0,13.0,30.12,WSW,255,5.0,8.0,62,0.00,,,0.00,,2013-01-04 08:22:00,
2013-01-04 03:32:00,23.0,12.0,30.12,SW,233,5.0,8.0,63,0.00,,,0.00,,2013-01-04 08:32:00,
2013-01-04 03:42:00,23.0,12.0,30.12,SW,233,5.0,8.0,63,0.00,,,0.00,,2013-01-04 08:42:00,
2013-01-04 03:52:00,23.0,13.0,30.12,WSW,243,5.0,13.0,64,0.00,,,0.00,,2013-01-04 08:52:00,
2013-01-04 04:02:00,23.0,13.0,30.12,SW,233,7.0,12.0,65,0.00,,,0.00,,2013-01-04 09:02:00,